This demonstration page uses our WeatherBlox Daily Observations layout. Learn more.

Left ArrowRight Arrow

38.83388, -104.82136

Hourly Observations for May 2, 2018

Temp ( °F °C ) Dew Point ( °F °C ) Humidity (%) Winds ( mph kmh ) Pressure ( in mb ) Visibility ( mi km ) Precip ( " mm )
7:58 am 07:58 Mostly Cloudy with Light Rain 40 4.7 39 4.1 96 96 SSE 7 11 29.57 1001 10 16 0.00 0.00
8:13 am 08:13 Mostly Cloudy with Light Rain 41 5 41 5 100 100 SE 6 9 29.55 1001 10 16 0.00 0.00
8:14 am 08:14 Mostly Cloudy 41 5 41 5 100 100 SE 7 11 29.55 1001 10 16 0.00 0.00
8:54 am 08:54 Mostly Cloudy 41 5 39 4 93 93 SE 9 15 29.83 1010 10 16 0.00 0.00
8:58 am 08:58 Mostly Cloudy 41 5.2 39 4.1 93 93 SE 8 13 29.83 1010 10 16 0.00 0.00
9:18 am 09:18 Mostly Cloudy 41 5 39 4 93 93 SE 7 11 29.83 1010 10 16 0.00 0.00
9:38 am 09:38 Mostly Cloudy 45 7 39 4 81 81 SE 9 15 29.80 1009 10 16 0.00 0.00
9:58 am 09:58 Mostly Cloudy 46 7.9 38 3.2 72 72 SE 10 17 29.77 1008 10 16 0.00 0.00
10:42 am 10:42 Mostly Cloudy with Light Rain 46 8 39 4 76 76 ESE 12 19 29.77 1008 10 16 0.00 0.00
10:58 am 10:58 Mostly Cloudy with Light Showers 47 8.4 39 3.9 74 74 SSE 10 17 29.77 1008 10 16 0.00 0.00
11:16 am 11:16 Mostly Cloudy 48 9 39 4 71 71 SE 14 22 29.74 1007 10 16 0.00 0.00
11:26 am 11:26 Mostly Cloudy with Light Showers 48 9 39 4 71 71 SE 10 17 29.74 1007 10 16 0.00 0.00
11:50 am 11:50 Mostly Cloudy 48 9 39 4 71 71 SSE 8 13 29.74 1007 10 16 0.00 0.00
11:58 am 11:58 Mostly Cloudy 47 8.5 39 4 74 74 SSE 10 17 29.74 1007 10 16 0.00 0.00
12:58 pm 12:58 Mostly Cloudy 53 11.9 38 3.4 56 56 SSE 6 9 29.62 1003 10 16 0.00 0.00
1:38 pm 13:38 Mostly Cloudy 54 12 37 3 54 54 SE 12 19 29.59 1002 10 16 0.00 0.00
1:58 pm 13:58 Mostly Cloudy 54 12 36 2.3 52 52 SSE 10 17 29.59 1002 10 16 0.00 0.00
2:58 pm 14:58 Mostly Cloudy 54 12.3 36 2.2 50 50 SE 14 22 29.53 1000 10 16 0.00 0.00
3:28 pm 15:28 Mostly Cloudy with Thunderstorms 54 12 36 2 51 51 SSE 16 26 29.56 1001 10 16 0.00 0.00
3:30 pm 15:30 Mostly Cloudy with Thunderstorms 54 12 36 2 51 51 SSE 17 28 29.56 1001 10 16 0.00 0.00
3:43 pm 15:43 Mostly Cloudy with Light Showers 54 12 37 3 54 54 SSE 18 30 29.56 1001 10 16 0.00 0.00
3:58 pm 15:58 Mostly Cloudy with Light Showers and Scattered Storms 50 10.2 40 4.2 67 67 SSE 13 20 29.59 1002 10 16 0.01 0.25
4:01 pm 16:01 Mostly Cloudy with Showers and Scattered Storms 50 10 39 4 67 67 SSW 18 30 29.59 1002 10 16 0.00 0.00
4:34 pm 16:34 Mostly Cloudy 50 10 39 4 67 67 SW 9 15 29.59 1002 10 16 0.00 0.00
4:58 pm 16:58 Partly Cloudy 51 10.6 37 2.9 59 59 SW 9 15 29.59 1002 10 16 0.08 2.03
5:55 pm 17:55 Mostly Cloudy with Light Rain 46 8 43 6 87 87 NW 8 13 29.65 1004 10 16 0.00 0.00
5:58 pm 17:58 Mostly Cloudy with Light Rain 47 8.4 42 5.8 84 84 NNW 6 9 29.65 1004 10 16 0.01 0.25
6:33 pm 18:33 Cloudy with Thunderstorms 46 8 41 5 82 82 WNW 7 11 29.68 1005 10 16 0.00 0.00
6:58 pm 18:58 Cloudy with Thunderstorms 46 7.8 40 4.2 78 78 SSW 3 6 29.65 1004 10 16 0.01 0.25
6:59 pm 18:59 Cloudy with Light Showers 46 8 39 4 76 76 E 7 11 29.65 1004 10 16 0.00 0.00
7:14 pm 19:14 Cloudy with Thunderstorms 48 9 39 4 71 71 WNW 6 9 29.62 1003 10 16 0.00 0.00
7:30 pm 19:30 Mostly Cloudy 46 8 36 2 66 66 Calm 29.65 1004 10 16 0.00 0.00
7:58 pm 19:58 Mostly Cloudy 44 6.7 42 5.4 92 92 WNW 8 13 29.53 1000 10 16 0.01 0.25
7:59 pm 19:59 Mostly Cloudy with Light Showers 45 7 41 5 87 87 WNW 7 11 29.53 1000 10 16 0.00 0.00
8:22 pm 20:22 Mostly Cloudy 46 8 39 4 76 76 NW 7 11 29.51 999 10 16 0.00 0.00
8:58 pm 20:58 Mostly Cloudy 44 6.9 38 3.6 80 80 NNE 7 11 29.53 1000 10 16 0.00 0.00
9:58 pm 21:58 Mostly Cloudy 44 6.8 37 3 77 77 Calm 29.56 1001 10 16 0.00 0.00
10:01 pm 22:01 Mostly Cloudy with Light Rain 45 7 37 3 76 76 Calm 29.56 1001 10 16 0.00 0.00
10:19 pm 22:19 Mostly Cloudy 45 7 37 3 76 76 NW 5 7 29.54 1000 10 16 0.00 0.00
10:58 pm 22:58 Mostly Cloudy 42 5.8 37 2.6 80 80 NNW 16 26 29.52 1000 10 16 0.00 0.00
11:58 pm 23:58 Cloudy 44 6.5 36 2 73 73 Calm 29.54 1000 10 16 0.00 0.00

Powered by AerisWeather